N892PA KORL-KORL

Flight info

Callsign N892PA
Flight time 0h 4m
Altitude 1500
Route KORL
Aircraft DA40/L-SFG/S

Departure

Time 2026-04-21 17:11
Airport Orlando Executive Airport (KORL)

Arrival

Time 2026-04-21 17:15
Airport Orlando Executive Airport (KORL)
Time Latitude Longitude Altitude Speed Heading
2026-04-21 17:00 28.54887 -81.33492 114 ft 0 kts 45°
2026-04-21 17:05 28.54888 -81.33491 114 ft 3 kts 46°
2026-04-21 17:05 28.54892 -81.33465 106 ft 3 kts 124°
2026-04-21 17:05 28.54883 -81.33453 114 ft 3 kts 144°
2026-04-21 17:06 28.54852 -81.33467 114 ft 9 kts 212°
2026-04-21 17:06 28.54817 -81.33501 113 ft 9 kts 227°
2026-04-21 17:06 28.54768 -81.33552 112 ft 10 kts 216°
2026-04-21 17:06 28.54718 -81.33585 113 ft 4 kts 214°
2026-04-21 17:07 28.54676 -81.33624 112 ft 12 kts 217°
2026-04-21 17:07 28.54624 -81.33651 112 ft 7 kts 139°
2026-04-21 17:07 28.54591 -81.33605 111 ft 7 kts 135°
2026-04-21 17:07 28.54553 -81.33556 110 ft 9 kts 131°
2026-04-21 17:08 28.54522 -81.33517 110 ft 2 kts 134°
2026-04-21 17:08 28.54522 -81.33516 110 ft 0 kts 134°
2026-04-21 17:09 28.54495 -81.33481 111 ft 11 kts 133°
2026-04-21 17:09 28.54482 -81.33406 113 ft 10 kts 70°
2026-04-21 17:09 28.54574 -81.33165 116 ft 55 kts 67°
2026-04-21 17:10 28.54717 -81.32772 355 ft 52 kts 72°
2026-04-21 17:10 28.54881 -81.32375 463 ft 60 kts 66°
2026-04-21 17:10 28.55062 -81.31938 585 ft 61 kts 70°
2026-04-21 17:10 28.55225 -81.31472 705 ft 66 kts 69°
2026-04-21 17:11 28.55459 -81.31023 847 ft 69 kts 46°
2026-04-21 17:11 28.55964 -81.31147 1019 ft 91 kts 329°
2026-04-21 17:11 28.56475 -81.31637 1058 ft 108 kts 310°
2026-04-21 17:11 28.56550 -81.32484 1107 ft 111 kts 259°
2026-04-21 17:12 28.56403 -81.33334 1143 ft 109 kts 251°
2026-04-21 17:12 28.56190 -81.34173 1158 ft 109 kts 252°
2026-04-21 17:12 28.55977 -81.35003 1150 ft 111 kts 253°
2026-04-21 17:12 28.55736 -81.35848 1096 ft 111 kts 246°
2026-04-21 17:13 28.55428 -81.36635 1064 ft 108 kts 223°
2026-04-21 17:13 28.54836 -81.36870 1058 ft 86 kts 168°
2026-04-21 17:13 28.54261 -81.36801 991 ft 81 kts 152°
2026-04-21 17:13 28.53819 -81.36514 830 ft 72 kts 120°
2026-04-21 17:14 28.53633 -81.36037 670 ft 61 kts 95°
2026-04-21 17:14 28.53661 -81.35573 512 ft 56 kts 68°
2026-04-21 17:14 28.53803 -81.35189 419 ft 54 kts 65°
2026-04-21 17:14 28.53959 -81.34778 349 ft 58 kts 66°
2026-04-21 17:15 28.54128 -81.34333 248 ft 63 kts 66°
2026-04-21 17:15 28.54299 -81.33887 139 ft 59 kts 68°
2026-04-21 17:15 28.54444 -81.33504 110 ft 39 kts 66°
2026-04-21 17:15 28.54587 -81.33133 184 ft 58 kts 68°
2026-04-21 17:16 28.54751 -81.32729 383 ft 60 kts 69°
2026-04-21 17:16 28.54901 -81.32317 576 ft 60 kts 71°
2026-04-21 17:16 28.55084 -81.31848 735 ft 71 kts 67°
2026-04-21 17:16 28.55336 -81.31320 826 ft 82 kts 57°
2026-04-21 17:17 28.55933 -81.31284 930 ft 106 kts 335°
2026-04-21 17:17 28.56477 -81.31813 1002 ft 108 kts 294°
2026-04-21 17:17 28.56459 -81.32665 1070 ft 110 kts 257°
2026-04-21 17:17 28.56317 -81.33532 1099 ft 115 kts 255°
2026-04-21 17:18 28.56127 -81.34448 1092 ft 119 kts 254°
2026-04-21 17:18 28.55905 -81.35319 1029 ft 113 kts 247°
2026-04-21 17:18 28.55605 -81.36118 914 ft 103 kts 234°
2026-04-21 17:18 28.55068 -81.36517 814 ft 95 kts 175°
2026-04-21 17:19 28.54439 -81.36501 744 ft 90 kts 158°
2026-04-21 17:19 28.53911 -81.36245 613 ft 75 kts 124°
2026-04-21 17:19 28.53709 -81.35761 546 ft 68 kts 90°
2026-04-21 17:19 28.53777 -81.35253 448 ft 55 kts 65°
2026-04-21 17:20 28.53918 -81.34892 349 ft 51 kts 69°
2026-04-21 17:20 28.54071 -81.34485 254 ft 60 kts 69°
2026-04-21 17:20 28.54231 -81.34062 170 ft 55 kts 69°
2026-04-21 17:20 28.54388 -81.33651 110 ft 53 kts 67°
2026-04-21 17:21 28.54475 -81.33429 113 ft 16 kts 58°
2026-04-21 17:21 28.54553 -81.33345 113 ft 17 kts 33°
2026-04-21 17:21 28.54621 -81.33290 113 ft 1 kts 34°